GFSNE_925_spd_000.txt.gz
Wind_Speed
20 21 22 24 24 26 26 26 16 16 16 28 30 35 34 36 36 33 38 43 39 45 37 40 41 34 35 36 34 33 34 37 33 32 32 27 38 29
21 24 23 26 26 27 27 28 27 20 15 30 33 36 40 36 36 38 39 41 38 40 42 43 33 37 43 45 39 33 34 33 32 31 31 29 32 33
23 24 25 26 27 28 28 28 27 27 13 29 32 39 41 40 38 38 35 38 37 40 41 38 39 39 42 41 38 38 34 33 30 29 27 28 30 34
26 26 26 27 28 28 28 28 28 30 26 19 33 36 37 39 38 39 38 36 39 38 41 41 39 41 42 43 36 34 33 35 32 27 29 27 29 31
26 27 28 28 29 28 29 30 29 29 30 29 29 33 35 35 36 37 38 37 36 35 36 36 35 33 37 35 38 36 35 31 30 29 28 27 26 28
27 26 27 27 27 29 30 30 29 31 32 30 28 29 31 36 33 30 29 32 35 35 36 33 35 33 32 30 32 36 29 28 26 24 26 26 25 30
27 26 26 26 28 28 29 31 33 33 30 28 25 26 27 28 26 31 29 33 35 36 32 27 28 28 31 36 36 35 36 31 28 26 27 27 29 30
27 28 28 28 27 30 32 33 34 35 33 28 25 15 28 30 33 31 30 17 16 30 27 30 31 30 33 32 34 34 36 34 33 31 29 31 32 34
26 28 29 28 29 31 33 35 35 31 30 35 31 31 33 34 36 35 32 28 18 33 31 24 28 28 30 32 34 38 40 40 35 31 31 33 36 35
26 27 29 31 30 34 35 35 29 32 34 36 34 34 35 38 37 36 35 36 35 31 23 13 25 28 31 30 30 31 34 27 32 38 39 38 34 33
28 28 30 31 34 37 32 31 35 35 37 33 39 37 40 38 34 32 26 14 14 18 20 22 23 24 21 32 31 20 20 25 34 37 36 34 31 27
29 30 30 32 36 36 40 32 29 33 36 38 34 34 31 32 30 28 28 14 13 14 17 10 21 19 7 12 12 25 28 37 29 24 22 21 21 16
29 30 31 33 35 43 43 32 31 40 36 32 32 31 30 28 28 27 29 29 23 14 27 24 18 19 13 10 22 23 26 31 15 23 19 15 22 32
32 31 31 37 42 40 33 32 37 34 28 29 29 28 28 29 29 33 35 35 34 35 37 29 21 15 10 10 10 18 19 17 7 22 22 22 24 27
31 30 38 40 37 31 30 32 32 27 27 26 26 27 29 34 36 33 31 32 33 31 28 26 14 15 16 9 9 12 5 8 11 20 22 23 22 23
28 30 36 33 30 29 28 29 27 27 28 28 28 31 33 32 30 30 27 27 23 18 10 8 10 12 16 17 17 9 3 2 8 22 24 27 26 26
38 32 27 27 26 27 27 27 28 29 28 28 29 30 30 29 28 29 26 21 12 7 8 6 7 9 11 8 5 3 5 5 9 20 25 22 23 27
30 25 24 25 25 27 27 28 29 30 29 30 30 29 27 27 26 27 21 13 6 7 8 10 11 8 4 14 18 8 10 10 13 19 20 19 16 22
23 23 23 24 26 27 27 28 29 31 32 29 29 28 27 26 26 19 12 10 6 7 9 12 12 6 4 4 6 21 9 9 16 19 17 15 10 18
23 23 24 26 27 28 29 30 31 31 30 29 29 27 25 22 19 14 13 9 8 9 9 10 11 11 4 4 3 13 14 13 17 17 19 23 21 18
23 24 25 27 28 29 30 31 30 30 31 29 25 24 24 21 14 14 13 13 11 8 5 5 9 5 4 3 6 10 18 16 14 17 16 15 12 11
25 26 27 28 30 31 31 30 30 30 29 26 25 23 21 17 14 13 12 11 10 9 7 6 7 4 4 7 7 8 13 17 20 17 14 10 4 5
26 27 29 30 31 31 31 29 29 30 28 25 23 22 21 16 14 13 11 10 9 8 6 4 6 9 10 11 10 9 13 12 12 14 14 12 7 12

GFSNE_925_spd_006.txt.gz
Wind_Speed
29 28 28 28 28 28 26 25 16 16 17 28 32 33 31 33 34 34 39 37 40 44 40 41 44 43 44 45 45 46 45 44 45 44 40 37 33 33
27 28 31 29 29 28 28 24 22 19 16 34 31 35 39 33 36 35 37 38 38 37 40 40 41 42 43 43 43 45 44 42 41 40 40 37 35 33
28 29 30 31 30 26 27 25 24 22 12 33 36 38 37 37 40 36 33 33 36 33 36 42 42 44 44 44 45 44 43 44 40 37 36 35 33 30
28 29 30 29 30 29 26 25 22 24 26 18 33 34 36 38 36 38 34 30 30 32 41 43 47 44 44 44 45 45 43 39 35 33 29 31 30 31
28 29 31 31 31 27 26 25 29 29 27 25 31 33 34 34 38 35 30 31 34 37 39 38 39 41 40 41 41 42 37 35 38 35 34 31 31 29
29 30 31 31 29 28 29 29 25 25 28 28 28 26 31 36 27 28 32 35 37 32 39 35 35 41 38 37 40 40 37 34 35 34 32 32 31 27
29 31 31 29 31 32 31 28 28 30 29 24 23 26 25 26 24 30 30 35 39 35 27 39 32 34 36 36 33 35 33 31 33 34 29 29 31 31
30 30 31 28 28 30 31 36 38 34 28 26 26 20 31 33 28 29 31 25 16 24 29 36 32 35 31 29 34 36 32 35 33 36 33 29 31 33
29 31 31 26 30 32 36 35 30 26 34 35 33 33 31 27 32 33 29 25 24 35 33 29 30 25 31 34 34 34 36 33 37 34 28 28 29 29
28 30 29 32 33 36 36 31 27 31 31 34 34 33 34 37 36 33 34 34 34 29 26 15 24 31 31 30 33 39 36 34 24 23 28 29 29 29
27 27 28 35 35 38 37 32 32 31 32 35 34 34 38 38 35 35 26 20 15 21 25 25 28 29 31 32 33 29 25 29 34 34 32 32 32 34
27 25 29 33 38 39 37 35 29 31 35 30 29 32 31 32 32 30 29 16 13 15 24 22 26 22 10 29 14 28 28 26 31 29 30 32 35 34
28 29 29 35 39 38 41 30 32 41 32 31 31 31 31 29 27 28 30 30 25 19 34 31 25 25 15 10 20 19 21 28 30 30 29 28 29 33
30 30 35 39 37 39 33 37 37 36 31 29 29 28 28 30 32 33 35 35 35 36 39 36 22 23 15 9 7 20 25 27 25 25 21 17 8 4
31 37 38 33 32 30 33 34 33 29 28 26 24 28 29 33 34 32 32 31 32 33 30 22 21 17 16 6 7 14 17 16 26 20 16 17 20 15
33 29 29 29 30 30 29 29 28 27 29 28 27 30 31 29 29 28 28 30 27 17 20 20 21 15 13 17 18 14 15 4 19 16 13 20 26 24
37 26 26 27 26 27 28 28 28 29 27 27 28 28 28 27 27 28 25 25 18 12 18 19 22 18 13 15 8 13 9 7 13 13 12 17 27 26
28 25 24 24 25 27 27 29 29 30 28 29 28 27 26 25 25 26 25 16 15 16 17 19 20 14 3 4 12 13 11 9 16 19 18 17 20 28
23 23 23 25 26 28 28 29 29 30 30 28 27 26 26 24 26 23 22 16 16 18 16 15 14 6 5 4 8 20 8 12 16 22 20 18 17 22
23 23 24 27 28 28 30 29 29 30 29 28 28 26 25 24 23 20 20 14 14 16 12 11 11 10 3 3 3 15 16 15 16 17 18 24 30 34
25 25 27 27 28 30 30 29 29 29 31 28 26 26 26 24 22 22 17 21 19 13 6 6 15 12 10 6 5 11 22 28 25 18 15 17 13 21
25 28 28 29 30 30 30 29 28 29 29 28 28 27 26 22 19 20 19 14 15 14 8 11 13 13 13 8 6 6 14 22 26 24 22 18 4 4
28 28 30 31 31 31 30 29 28 29 29 28 27 27 24 20 21 19 17 15 15 11 11 9 13 15 12 9 9 9 15 17 18 22 23 20 26 28

GFSNE_925_spd_012.txt.gz
Wind_Speed
23 19 18 22 26 25 24 21 16 13 15 23 22 22 24 27 29 30 30 30 33 34 38 38 39 41 40 39 38 40 40 40 44 42 45 44 43 44
21 17 24 26 25 25 24 23 21 20 14 29 30 29 29 27 29 30 30 32 32 36 38 40 42 44 41 41 45 45 45 46 48 47 46 47 45 42
19 22 21 26 23 25 23 23 23 22 13 34 34 33 32 31 31 29 28 25 29 36 40 45 45 44 44 45 46 47 47 45 45 44 44 44 44 44
24 20 23 23 25 24 24 24 25 28 24 17 34 31 32 35 31 29 26 30 30 34 39 38 40 43 44 44 44 43 42 37 41 43 43 42 41 41
23 20 23 27 25 25 27 27 25 23 24 26 30 34 37 30 22 29 31 34 35 34 35 34 37 39 38 38 38 37 42 41 41 41 41 40 41 42
23 22 24 26 26 27 26 24 24 29 29 28 28 27 27 27 26 29 33 32 35 31 31 33 37 37 38 39 41 42 40 39 39 39 38 40 40 39
26 26 26 25 26 27 28 29 31 29 27 21 26 28 17 26 24 30 30 35 25 30 34 33 29 31 36 38 39 38 36 37 37 38 37 39 40 39
29 27 28 25 26 29 31 33 34 34 33 28 18 19 23 28 30 30 28 23 14 30 23 34 31 35 34 34 37 38 39 40 40 40 41 40 41 42
27 28 28 24 28 29 32 35 35 35 28 29 26 27 29 31 28 30 30 27 24 34 31 30 32 31 33 35 38 39 40 40 40 40 40 41 42 41
26 25 26 27 28 33 36 33 28 25 24 29 30 31 30 34 36 31 31 31 30 32 28 13 33 31 34 36 38 39 40 38 38 38 37 37 38 39
24 24 25 29 31 36 34 28 28 28 32 30 29 32 36 32 33 31 24 21 14 24 31 24 30 29 31 37 38 36 34 33 35 36 39 38 35 32
25 24 23 30 35 30 37 30 29 32 29 29 30 30 31 31 30 28 27 17 12 14 28 19 26 23 8 27 24 29 32 33 34 37 38 36 35 32
24 24 27 30 33 36 35 28 29 34 29 29 29 29 29 28 30 28 29 27 24 20 36 30 23 24 16 8 25 26 30 31 32 34 32 32 33 33
24 28 26 32 34 32 27 28 30 30 28 26 26 26 28 29 31 33 34 34 33 34 40 37 25 24 16 12 13 25 30 31 29 30 30 29 28 29
26 29 28 30 29 26 26 28 28 26 25 24 24 27 29 33 34 32 32 32 31 33 33 33 28 28 23 11 10 19 20 23 29 24 25 23 21 18
27 21 25 26 25 26 26 26 25 25 26 25 26 30 30 29 29 29 28 30 26 29 27 24 27 24 18 16 16 16 24 8 27 27 23 20 18 11
30 23 23 24 24 25 26 26 26 26 25 26 27 28 28 28 28 28 26 26 19 18 21 25 27 25 16 17 9 17 21 20 20 21 15 14 15 17
22 20 22 22 22 24 25 27 27 27 26 28 27 27 26 26 26 27 25 21 16 19 18 21 23 19 10 8 10 17 14 13 22 20 19 8 15 28
19 20 21 22 24 25 25 26 27 28 29 27 27 26 26 25 26 24 23 20 18 17 18 19 17 6 4 5 9 23 20 20 19 20 18 16 11 27
19 21 22 24 25 26 27 27 29 29 28 27 27 27 25 23 23 21 20 18 17 15 15 17 16 12 3 4 3 14 32 24 21 19 18 20 24 29
22 23 24 25 26 27 28 28 28 28 29 28 27 25 25 22 21 21 19 21 20 12 7 9 19 16 16 9 6 8 24 33 35 30 25 10 11 23
24 25 26 27 28 28 29 28 29 29 28 27 27 26 25 23 21 20 18 15 15 13 9 15 18 18 15 9 5 7 16 24 32 39 44 40 19 9
26 27 28 29 29 29 29 28 28 29 28 27 27 26 24 23 24 19 17 16 15 12 12 12 15 16 15 11 9 9 15 19 19 25 34 44 45 43

GFSNE_925_spd_015.txt.gz
Wind_Speed
17 16 14 18 18 20 20 19 14 10 14 14 17 22 26 29 30 30 33 32 33 34 35 37 37 42 45 47 47 46 47 45 43 41 42 42 43 44
19 18 19 18 20 21 22 22 20 19 12 29 29 29 29 27 30 33 34 34 36 33 33 38 43 47 48 48 48 47 47 46 47 47 47 46 47 48
21 20 20 19 20 24 24 22 21 21 14 35 33 33 35 35 32 31 31 28 27 32 37 43 46 43 42 42 41 42 45 45 46 46 48 48 48 48
23 22 21 22 22 25 25 23 24 26 24 17 33 37 37 35 36 34 25 27 27 31 39 42 40 41 41 39 41 43 41 41 42 44 42 41 42 44
23 23 24 23 26 26 28 27 25 23 22 27 31 36 36 33 33 24 31 31 32 33 37 35 35 35 39 45 43 41 40 41 42 41 42 42 43 44
22 22 22 23 25 28 25 25 22 27 28 28 29 27 31 29 25 29 34 31 32 32 31 31 40 40 40 39 40 41 41 42 42 42 41 42 42 44
21 23 23 21 23 25 27 29 31 28 27 24 26 23 21 27 26 30 31 33 27 30 35 35 31 31 34 38 39 40 38 37 38 39 40 41 41 42
25 25 25 22 23 27 30 30 32 33 31 20 24 21 25 28 32 30 25 27 14 32 23 36 32 34 35 34 36 37 38 40 41 41 41 41 42 43
25 28 28 25 28 31 32 34 29 24 31 30 29 26 30 30 30 31 29 26 26 36 28 30 32 32 34 35 36 38 39 40 40 40 40 40 41 42
27 27 27 30 29 32 34 24 29 27 27 31 29 32 32 35 35 31 32 33 31 32 26 13 31 33 36 36 38 39 39 37 35 36 37 39 39 38
25 24 23 26 29 34 32 30 28 29 31 29 28 33 36 32 32 31 25 22 15 25 29 24 28 29 34 38 38 33 33 33 35 37 38 40 39 39
21 22 21 28 32 33 33 30 24 31 30 26 32 31 31 31 29 27 27 19 14 15 23 20 27 22 9 27 26 32 31 33 35 34 36 38 39 38
24 23 26 28 33 34 32 25 27 33 28 29 28 30 29 29 29 29 29 28 26 22 36 31 25 26 15 11 25 28 30 34 33 34 35 35 37 37
23 27 28 32 33 31 27 26 30 29 27 26 27 27 28 30 32 33 35 34 33 35 41 38 25 25 19 13 14 25 31 31 29 31 30 33 34 35
24 30 29 29 28 25 25 27 27 24 24 23 24 27 29 33 34 32 31 31 31 32 33 33 30 30 24 14 11 21 22 24 29 27 28 27 26 26
26 21 26 24 23 24 25 24 24 23 25 24 26 30 31 30 30 29 29 30 27 29 28 26 26 26 23 22 19 18 26 8 25 29 26 25 21 17
28 23 22 22 23 24 25 24 25 25 25 25 26 28 29 28 28 29 26 27 19 20 26 28 30 27 23 22 10 17 22 22 22 25 23 19 17 18
21 19 20 21 22 23 24 26 26 26 26 27 27 27 27 27 27 28 25 22 19 21 21 23 26 24 17 9 11 17 19 20 26 24 23 13 10 24
17 19 20 22 23 25 25 25 26 28 28 26 26 26 26 27 26 25 24 21 20 20 20 21 19 11 8 7 9 21 21 24 25 21 22 21 10 25
18 20 22 23 25 26 26 26 28 29 27 27 26 27 25 23 24 22 21 20 18 18 17 19 19 17 6 4 4 16 33 28 22 22 23 15 23 24
21 23 23 24 26 27 28 28 27 27 28 27 27 25 26 23 24 22 22 24 22 15 7 12 22 22 21 12 7 9 26 33 34 32 31 16 12 21
23 24 26 26 27 28 29 29 29 29 28 26 26 26 26 23 22 22 21 18 17 14 13 19 22 21 17 7 6 7 18 25 30 39 47 42 21 13
25 26 28 29 29 29 29 28 28 29 28 27 27 27 25 23 24 23 20 19 16 14 14 12 18 15 15 9 11 9 16 20 20 23 34 44 43 47

GFSNE_925_spd_018.txt.gz
Wind_Speed
13 14 14 14 16 15 17 17 11 9 14 9 8 24 26 26 28 30 32 33 33 36 39 41 41 39 39 41 45 47 50 50 49 48 48 47 46 45
16 16 17 17 17 18 18 20 20 20 11 28 30 29 28 28 31 32 33 33 35 38 37 36 35 40 44 51 53 53 50 47 44 44 45 46 48 46
17 18 20 20 21 21 21 23 24 23 15 37 33 33 33 32 33 30 29 29 32 31 32 38 43 48 50 49 49 47 45 45 43 41 43 45 46 46
20 20 22 21 22 23 24 27 27 27 25 23 35 35 34 35 35 32 27 26 32 34 37 40 43 44 44 44 41 41 42 43 44 44 44 43 42 43
18 20 22 22 24 24 25 26 27 24 22 27 33 36 36 31 28 29 30 34 31 33 35 36 38 40 42 42 45 45 45 45 43 43 43 42 41 41
19 22 22 22 22 24 23 23 21 27 29 28 29 29 23 27 30 33 29 30 33 30 31 40 38 39 39 41 41 41 42 42 42 41 42 42 42 43
21 21 22 20 20 22 25 27 28 27 27 22 18 28 26 29 26 32 30 33 34 32 32 35 31 33 36 38 39 39 39 38 38 39 39 39 39 41
24 25 25 22 22 25 27 28 30 29 25 24 25 22 27 28 32 29 29 28 15 28 21 36 32 35 35 35 36 36 38 40 40 40 41 41 42 41
24 26 27 24 25 28 31 30 23 27 28 30 28 28 29 32 31 31 31 28 28 35 31 32 31 34 35 36 37 38 39 40 40 41 41 40 40 42
25 24 25 27 25 30 33 24 28 27 25 29 28 32 30 34 35 31 32 34 33 32 26 14 32 35 36 36 39 40 39 36 36 37 38 38 39 40
26 20 22 25 29 32 30 27 27 27 32 28 27 31 35 31 30 31 26 23 15 27 30 26 28 30 36 39 38 31 32 34 35 35 36 38 39 41
20 21 20 27 31 30 32 28 24 31 30 25 31 32 29 30 28 26 27 21 19 13 25 19 28 24 8 25 25 33 32 33 32 33 35 37 38 37
23 21 24 28 31 32 30 25 26 31 28 29 27 28 28 27 28 27 27 27 26 24 38 31 22 27 16 15 27 27 30 32 31 34 34 33 34 36
23 24 28 31 32 29 25 24 27 27 26 24 25 26 27 28 31 32 34 33 32 34 42 38 25 26 21 14 14 25 32 34 28 30 30 32 33 35
24 29 29 29 27 24 23 25 25 23 23 22 23 26 27 32 33 31 33 32 32 32 31 30 30 31 26 18 10 24 25 25 31 27 29 29 31 30
25 25 26 24 21 23 23 23 23 22 24 24 24 29 29 28 29 28 28 31 28 29 27 25 26 26 26 24 21 22 27 9 31 31 29 28 28 28
29 23 22 21 22 22 23 24 24 24 23 24 25 27 28 27 29 27 26 26 20 21 29 32 30 27 25 26 15 20 25 25 30 30 26 23 24 24
20 19 19 20 21 22 24 26 26 26 25 27 27 25 26 26 26 28 25 21 19 22 23 26 28 28 28 14 11 17 22 25 34 31 27 17 13 22
16 18 19 21 22 24 25 25 27 28 28 25 26 27 25 26 25 24 23 21 20 21 21 23 21 15 11 11 12 21 25 30 32 28 29 24 9 22
16 18 20 22 24 25 26 26 28 29 28 26 26 27 26 23 24 22 22 20 19 20 19 20 18 17 8 6 5 20 31 31 30 27 29 21 23 32
20 21 22 23 26 26 28 29 28 28 28 28 28 26 26 23 23 22 22 25 24 17 9 15 22 22 20 16 9 10 26 34 35 31 31 18 11 17
21 22 24 25 27 28 30 29 29 29 28 27 27 26 26 23 22 22 21 20 18 16 16 22 24 22 13 5 7 10 16 27 32 33 42 39 17 8
23 25 27 29 30 30 29 29 29 30 29 28 28 27 25 24 24 22 22 20 16 15 16 15 18 15 12 7 10 10 17 19 20 24 29 37 38 35

GFSNE_925_spd_024.txt.gz
Wind_Speed
5 7 9 11 12 14 15 17 18 14 13 18 13 19 24 26 28 28 30 30 32 35 37 37 38 38 41 42 42 43 41 42 43 42 42 43 44 46
6 8 10 11 14 15 16 18 19 22 13 22 26 26 26 28 28 29 30 31 33 35 38 39 39 39 39 40 41 41 42 43 43 44 45 46 47 50
8 9 11 12 14 16 17 18 20 22 18 28 29 28 30 29 30 28 29 32 36 37 36 37 38 38 38 40 41 41 42 43 43 44 45 45 45 45
10 11 13 13 15 16 16 18 20 22 26 27 30 31 30 30 30 29 33 33 35 34 36 37 38 39 39 38 39 40 41 43 43 43 44 44 45 46
11 12 14 15 16 17 18 20 22 24 27 29 32 31 31 26 30 33 30 31 29 31 35 36 37 39 38 38 39 41 43 43 43 43 43 44 44 44
13 14 16 16 17 18 21 23 24 25 28 28 29 32 24 29 32 28 28 29 30 31 37 35 35 36 36 38 41 41 41 40 40 41 42 43 43 43
15 16 16 17 19 20 22 23 25 26 26 27 26 24 28 29 27 28 28 31 34 30 33 34 31 35 37 36 37 36 36 37 38 40 40 42 42 42
16 17 18 19 19 20 22 23 26 28 28 27 24 25 30 30 29 27 31 24 15 30 25 37 33 36 35 35 36 37 39 40 40 40 41 42 42 44
17 18 20 19 20 22 22 26 28 28 25 33 29 29 30 31 32 33 29 31 28 34 32 33 32 34 35 36 37 38 39 39 38 38 39 41 42 43
17 19 20 20 21 23 28 27 22 28 27 26 28 31 32 33 30 33 32 33 34 32 28 15 32 32 33 36 41 37 35 34 34 35 37 39 40 41
17 19 19 22 21 27 28 26 29 29 25 24 27 31 31 34 31 27 26 23 16 27 30 24 23 29 35 40 30 24 27 35 37 35 36 37 38 40
20 20 20 20 25 26 28 29 28 27 27 29 29 27 25 24 24 22 23 21 21 14 20 19 26 23 8 22 22 37 33 33 31 35 34 35 35 37
21 22 21 23 26 29 28 27 24 28 29 28 25 24 23 23 22 21 22 23 25 24 35 28 23 27 18 21 32 36 35 34 31 36 35 34 34 34
21 22 24 27 29 28 25 21 24 26 23 21 22 24 24 26 25 26 30 29 28 33 40 35 26 27 25 17 15 28 34 38 34 34 35 37 38 40
20 24 26 26 26 22 19 22 21 19 20 21 21 23 25 28 31 28 28 28 29 31 31 32 31 31 28 24 18 32 31 35 34 30 36 36 35 35
22 24 24 23 20 20 19 18 18 19 20 21 22 25 27 26 26 26 26 27 26 30 28 26 26 28 30 30 29 27 32 14 35 34 38 40 36 32
25 23 20 19 18 18 18 19 20 20 21 22 23 25 25 25 25 26 25 25 22 23 27 28 26 28 29 31 26 29 29 30 31 33 36 33 34 29
21 17 17 17 17 18 20 23 22 22 22 23 25 24 24 24 26 27 24 22 21 23 24 26 29 27 25 22 20 21 27 26 31 32 31 23 23 30
13 14 16 17 18 19 20 22 25 25 26 23 24 24 24 24 25 24 24 22 22 22 24 26 24 19 12 13 30 23 23 30 28 27 27 28 19 28
13 15 17 17 19 20 23 24 25 26 24 24 25 25 24 22 23 22 22 22 21 23 23 23 22 20 12 13 14 34 31 25 24 22 25 28 28 21
15 16 17 18 20 22 24 25 25 26 27 26 25 24 24 22 22 23 23 26 25 20 14 19 26 29 27 23 13 16 27 27 27 25 24 17 10 12
17 18 19 19 22 24 25 25 26 26 25 24 24 25 24 23 22 23 22 22 21 21 22 24 27 25 21 15 11 15 24 29 28 27 20 25 13 5
18 19 19 22 24 25 25 25 25 27 26 25 25 26 25 25 24 23 22 22 21 20 20 22 23 21 19 18 18 15 21 23 22 23 20 27 25 23

GFSNE_925_spd_030.txt.gz
Wind_Speed
3 4 6 7 8 10 11 12 10 5 8 7 18 15 28 29 28 27 30 34 31 31 32 35 37 37 36 36 36 35 35 34 34 35 34 34 35 35
4 6 8 10 11 13 14 14 14 16 8 17 23 26 28 28 28 31 33 31 31 34 36 36 36 36 34 35 36 36 36 36 36 35 36 35 35 35
5 8 9 10 13 13 14 17 19 20 14 24 26 27 27 28 33 29 32 32 34 32 34 34 32 33 36 37 37 38 38 38 37 37 36 36 36 36
7 9 11 11 13 15 16 17 17 20 23 22 24 25 26 27 31 35 31 31 31 35 30 32 35 36 36 37 36 37 36 36 36 36 35 36 37 38
8 10 12 14 16 16 17 16 17 21 23 22 25 24 28 29 31 29 30 31 32 28 33 30 38 36 35 38 35 36 37 38 36 36 36 35 35 36
10 11 13 15 17 16 17 21 19 21 22 22 22 25 25 27 26 26 29 26 29 31 35 33 32 35 35 34 36 37 35 34 34 33 33 33 34 34
11 13 14 13 14 18 19 18 21 22 22 20 22 26 26 16 25 25 24 29 34 33 32 26 30 35 37 35 34 34 33 33 34 35 35 35 35 35
13 14 15 16 16 16 18 20 21 24 22 24 24 21 28 25 23 23 28 27 13 26 23 33 33 36 34 33 33 35 37 35 34 35 36 36 36 36
14 16 16 16 17 20 19 20 21 22 25 30 29 27 29 28 30 27 29 28 26 31 28 29 33 35 34 34 35 36 36 38 35 32 31 31 32 34
15 16 17 17 18 20 23 21 24 26 28 27 29 30 27 32 32 31 29 29 30 31 26 20 32 34 39 35 35 39 35 31 29 30 31 34 35 35
15 15 16 19 19 20 22 27 26 24 23 27 28 29 30 32 31 29 26 22 20 27 27 25 30 29 37 39 35 26 28 30 34 32 32 33 34 34
16 18 17 18 20 21 25 26 23 24 30 29 26 33 29 27 27 26 28 23 23 22 24 17 26 21 10 24 22 33 33 30 32 33 33 33 33 34
18 20 20 20 22 25 27 26 25 27 25 24 27 26 27 27 26 26 25 25 26 28 38 29 26 27 19 25 25 30 34 38 32 35 34 33 31 30
21 21 22 22 26 26 25 23 23 24 23 24 23 25 25 26 28 29 33 33 34 37 41 37 28 29 28 23 17 31 34 36 34 34 33 35 34 32
20 21 24 25 26 23 21 21 20 22 22 21 22 25 26 31 34 31 32 32 34 37 36 35 34 34 30 27 25 33 33 33 35 31 29 32 34 33
23 23 22 25 19 19 21 20 21 21 21 22 25 28 30 29 30 28 28 30 29 32 31 29 29 31 31 30 30 31 34 21 34 34 33 34 36 33
23 23 24 21 21 20 19 20 21 21 22 24 25 26 28 28 29 29 28 27 23 26 30 32 30 30 33 34 31 34 31 32 33 33 31 30 34 33
20 17 18 18 17 19 20 22 23 24 24 25 27 26 26 27 28 29 26 25 24 26 26 30 30 31 28 24 26 30 28 29 31 30 30 26 29 32
16 19 19 18 18 20 21 23 25 27 28 26 26 27 28 26 27 27 26 25 25 25 28 29 26 22 13 14 30 20 22 29 30 28 26 26 26 32
17 19 20 20 20 21 23 24 27 28 27 27 27 27 27 25 26 25 25 24 24 25 26 27 25 22 12 15 17 40 30 27 24 26 27 28 31 33
20 20 20 21 22 23 25 27 27 29 28 28 29 27 28 26 26 26 26 29 29 24 20 24 29 32 33 31 15 20 31 32 30 28 29 24 16 17
20 21 22 22 24 25 28 28 29 29 28 28 28 28 29 27 26 26 26 25 25 25 27 27 29 29 24 18 12 18 27 32 34 30 29 25 15 7
22 23 24 26 27 28 27 28 28 30 29 29 30 30 29 27 28 27 26 26 26 25 22 25 27 24 23 19 22 19 24 27 27 26 27 26 26 23

GFSNE_925_spd_036.txt.gz
Wind_Speed
11 10 8 7 6 6 6 6 5 2 2 4 5 5 24 26 26 23 24 25 28 28 28 28 27 27 28 29 30 30 29 29 31 32 33 33 34 35
10 8 7 6 6 6 7 8 9 10 3 6 12 26 25 27 26 24 26 26 26 25 26 25 27 29 28 28 28 29 31 31 32 33 34 34 35 36
10 8 7 7 7 8 9 9 12 13 9 14 20 25 25 27 29 29 30 30 27 24 28 26 27 27 27 29 30 31 32 33 33 32 34 35 35 36
6 6 5 6 8 8 10 13 15 15 18 16 20 24 25 27 30 31 31 29 28 29 27 27 28 28 29 29 30 29 30 31 32 34 34 35 35 37
4 4 6 8 10 11 13 15 16 17 19 22 20 24 25 28 30 29 28 29 30 27 28 28 28 29 29 27 28 30 31 30 31 33 34 34 35 34
4 7 9 11 12 12 13 15 17 18 18 20 22 22 24 29 25 26 25 26 28 30 32 30 28 25 28 30 31 31 31 31 32 32 32 33 33 34
6 7 10 10 9 11 14 15 14 18 20 22 19 20 18 19 22 25 25 28 29 30 32 28 27 30 33 32 32 30 30 30 30 32 34 35 34 35
5 7 9 10 11 12 14 16 18 20 22 17 18 15 19 23 24 25 25 24 11 22 18 28 29 30 31 33 32 29 32 33 33 34 35 35 33 34
4 8 9 8 9 12 15 16 17 19 19 23 23 22 25 27 31 30 27 22 21 32 30 29 28 32 31 32 31 33 35 35 33 31 32 32 32 32
6 6 9 12 13 14 16 19 19 20 20 21 24 29 31 29 25 25 25 27 28 30 27 19 27 31 32 32 33 34 32 30 29 28 29 31 33 34
7 7 11 14 14 15 19 22 21 22 23 24 24 25 25 26 28 27 23 19 20 25 28 24 19 26 29 35 28 25 26 27 29 32 35 34 33 33
9 11 14 15 16 17 19 21 18 23 27 24 21 27 30 28 23 20 23 20 21 15 13 8 22 20 9 21 22 25 35 33 33 33 32 34 33 32
14 19 19 16 16 18 20 22 23 23 20 22 28 27 28 26 25 25 24 23 23 25 31 25 20 24 19 22 21 28 32 37 37 35 33 31 30 29
16 18 17 17 18 20 21 18 20 20 22 22 20 21 22 27 30 30 30 29 29 34 38 32 22 25 26 24 19 27 29 33 34 36 34 33 28 27
16 17 17 15 17 17 17 17 16 17 19 19 19 22 24 29 32 30 31 31 33 36 34 31 30 32 29 28 25 33 33 29 35 34 33 32 33 28
19 11 11 14 15 14 15 16 16 16 17 20 22 25 27 26 28 27 27 28 28 32 34 29 26 29 31 30 29 32 34 21 31 33 33 32 31 29
10 15 18 18 18 18 17 18 19 20 19 21 21 23 25 25 27 28 26 26 22 27 31 35 29 28 32 33 29 35 32 32 33 32 29 32 31 31
12 13 16 16 16 17 17 20 22 21 21 22 22 23 24 25 27 27 24 23 23 26 27 30 30 29 29 27 29 34 35 31 34 33 29 27 28 30
11 14 16 16 17 18 20 21 24 25 25 22 24 26 27 25 25 25 25 24 24 25 28 29 26 21 12 14 27 23 27 29 31 31 30 29 29 33
14 15 17 18 19 20 23 24 25 26 24 25 26 25 27 24 25 25 24 24 24 26 26 27 24 22 13 16 19 40 30 25 24 26 28 30 34 37
17 17 17 18 20 22 23 24 24 25 23 26 28 26 29 25 25 25 26 28 28 24 21 25 30 33 34 32 17 23 34 30 28 29 30 23 20 23
17 18 19 19 21 22 23 24 26 26 27 27 28 29 30 27 26 27 26 25 26 26 27 29 30 29 27 20 13 23 27 33 35 30 29 30 22 6
17 19 20 21 23 23 24 25 26 26 27 29 30 31 31 28 28 27 27 27 25 24 26 28 29 27 25 23 24 21 27 29 28 28 30 30 28 29

GFSNE_925_spd_039.txt.gz
Wind_Speed
14 10 9 7 6 7 7 7 5 2 3 5 5 7 10 24 24 22 21 25 23 24 25 25 25 25 25 27 29 29 29 30 29 29 31 32 32 32
10 11 8 9 8 7 7 8 10 10 3 9 8 18 23 24 23 22 25 25 26 23 23 23 25 27 26 28 28 28 28 30 32 31 31 33 33 33
6 5 10 6 7 8 9 10 11 13 8 10 17 22 23 23 25 26 28 30 28 26 25 25 26 26 26 28 28 29 30 31 31 32 32 32 32 34
11 9 11 6 6 9 10 12 13 15 16 15 20 23 23 24 24 28 29 30 29 29 27 26 26 26 27 28 29 29 29 30 31 32 32 33 33 35
5 8 5 5 7 10 13 15 16 16 18 20 17 21 23 24 26 30 30 29 27 29 27 26 25 26 26 25 26 28 30 31 32 32 32 32 34 35
6 3 7 10 11 12 14 14 14 16 17 19 21 23 25 25 25 26 24 25 27 30 33 27 24 24 25 29 30 31 31 31 31 31 32 34 34 34
7 8 6 10 8 9 14 15 15 15 16 21 21 21 22 19 19 25 25 26 27 30 29 27 23 28 33 32 31 32 29 28 29 30 31 33 34 35
5 6 7 8 9 10 11 12 14 18 21 18 22 18 18 21 23 24 25 22 9 19 18 30 27 30 34 33 32 29 30 32 33 33 34 34 35 35
4 5 6 8 10 13 13 13 14 15 18 21 21 22 24 26 31 28 25 23 22 26 29 32 25 31 34 34 31 31 33 33 33 32 32 32 32 32
5 5 6 9 12 14 15 16 17 18 19 20 24 28 30 29 25 25 24 25 26 27 25 19 23 29 31 34 34 33 31 30 29 29 29 30 31 32
5 6 8 12 15 14 17 19 18 19 20 24 23 22 23 25 27 29 24 20 20 23 26 22 18 23 27 35 28 24 25 27 29 31 33 34 34 35
7 9 13 13 14 13 17 16 18 24 26 21 20 28 30 28 23 20 23 20 19 14 13 8 22 19 9 22 21 24 36 34 32 33 32 33 33 33
11 15 15 12 14 15 17 20 21 21 21 23 27 27 27 27 26 25 23 22 23 24 31 25 19 22 18 21 19 26 33 37 37 38 34 32 30 29
12 14 14 14 15 16 17 17 18 18 21 22 22 23 24 28 30 29 28 27 28 31 37 30 21 24 25 25 20 27 30 33 34 38 35 35 29 28
14 14 12 12 15 17 17 16 15 16 18 20 19 22 25 29 30 30 31 31 32 33 32 30 30 31 28 27 26 32 32 27 33 34 32 31 34 33
12 8 12 15 14 13 15 14 14 16 17 19 23 26 27 28 28 27 29 28 26 32 32 29 27 28 31 30 29 33 34 20 30 31 31 31 30 30
11 16 18 18 18 17 16 15 17 19 19 21 21 21 25 25 26 28 28 27 21 26 31 34 30 28 31 32 29 35 32 32 33 32 28 31 32 31
11 13 16 16 16 17 17 20 21 20 22 22 22 23 24 25 26 27 24 22 23 25 27 30 30 28 26 24 28 34 34 31 35 33 31 28 29 27
10 13 14 15 17 17 19 21 23 24 23 23 23 27 26 26 25 26 24 23 23 25 28 29 26 20 11 13 29 24 28 31 32 31 31 29 30 34
11 13 15 15 16 19 21 22 24 25 25 23 26 26 27 26 25 24 24 24 23 26 27 27 24 22 13 16 19 41 28 26 24 27 28 30 33 37
13 14 15 16 18 19 21 22 23 25 22 25 27 28 28 25 25 25 25 28 28 25 22 25 29 31 32 31 17 25 35 29 27 29 31 24 21 26
14 16 17 18 19 20 21 22 25 27 27 27 28 29 29 26 25 26 25 25 26 26 28 31 31 29 25 20 13 25 29 36 36 29 28 29 23 7
15 16 18 20 21 21 22 24 26 27 27 28 29 32 31 28 29 28 29 28 27 25 27 28 28 26 26 23 24 22 29 30 31 31 33 30 29 30

GFSNE_925_spd_042.txt.gz
Wind_Speed
19 16 15 9 9 7 6 8 6 3 3 3 5 8 10 11 20 21 21 21 19 22 24 23 24 25 24 26 27 27 27 28 28 29 28 29 30 30
18 16 11 13 5 5 1 3 3 5 3 6 5 11 16 20 22 22 23 23 24 24 24 24 26 25 26 27 27 27 28 28 29 29 31 32 30 31
18 15 10 7 6 1 2 2 7 9 7 8 12 18 21 23 24 24 23 25 29 29 26 26 26 25 26 27 27 28 29 29 30 31 32 31 32 31
16 14 9 7 4 2 5 5 7 13 16 11 17 20 21 22 25 25 24 27 29 29 27 26 26 25 25 26 26 27 28 28 29 30 30 32 32 32
13 12 10 7 7 7 8 13 14 16 14 15 16 18 21 23 25 25 27 29 26 31 27 26 24 23 24 24 25 27 29 31 31 32 32 32 33 33
12 9 7 4 5 6 8 12 13 14 14 17 19 21 22 22 22 25 24 24 29 29 31 24 20 21 24 27 29 30 31 30 30 31 32 33 34 35
8 4 2 2 3 6 7 10 13 14 16 17 18 19 18 18 18 24 27 26 25 27 25 27 25 28 35 33 31 30 28 27 27 29 30 32 32 33
5 4 1 3 2 4 6 8 9 14 16 15 18 15 15 20 24 24 24 21 11 18 19 32 26 31 36 34 33 29 29 30 31 31 32 32 33 33
3 3 4 3 3 6 8 8 9 12 13 17 19 20 21 25 29 27 24 23 22 25 27 35 23 31 33 34 29 29 32 32 31 29 29 29 30 30
3 1 1 4 6 9 11 12 13 14 14 16 20 24 25 24 23 23 24 27 26 25 23 20 24 28 31 33 35 31 28 28 27 28 28 28 29 30
2 2 4 8 10 10 12 14 13 13 17 19 17 17 19 23 24 24 25 19 18 20 23 21 20 24 27 33 23 23 25 26 29 31 32 32 32 32
1 5 8 8 9 9 12 11 13 20 19 18 18 24 23 21 19 17 19 19 17 13 9 7 21 19 10 20 20 27 37 36 31 32 31 32 32 32
6 9 9 8 10 12 12 16 17 17 17 18 21 21 22 22 23 23 21 20 19 20 29 22 19 23 18 22 23 27 33 37 38 39 35 31 29 28
9 10 11 10 10 12 14 14 13 13 16 16 19 22 23 26 25 25 25 24 23 28 34 28 20 23 25 25 22 29 30 33 34 38 35 35 29 28
9 8 7 10 12 13 11 12 10 12 14 16 19 22 23 24 25 27 27 28 29 31 29 27 27 30 27 27 27 33 31 29 33 33 30 32 35 32
8 7 9 10 10 10 11 10 11 13 14 17 21 24 22 25 27 26 30 31 28 32 30 24 21 25 30 30 30 33 34 18 29 31 30 32 32 31
7 11 13 14 15 14 14 14 15 17 18 20 21 22 24 25 28 29 28 28 19 24 31 35 28 27 29 31 30 32 31 32 31 33 27 30 34 32
9 12 14 14 14 15 16 19 19 19 20 22 22 21 24 26 27 27 24 22 22 25 26 31 30 27 24 22 26 33 32 29 35 32 29 26 30 31
11 12 13 14 15 15 17 18 21 22 22 22 20 23 24 26 22 27 27 22 23 25 27 27 25 21 11 13 28 21 27 30 32 33 29 28 29 36
11 12 13 14 15 17 18 20 22 23 23 21 23 24 24 24 24 23 23 23 24 26 27 27 24 22 12 16 18 42 26 25 25 28 28 31 34 38
13 13 13 15 16 18 19 20 21 23 20 23 24 23 25 24 25 25 26 27 27 25 23 26 30 31 33 32 16 27 35 25 24 28 30 25 24 28
13 14 15 16 17 18 20 21 23 25 25 25 25 25 27 27 26 27 26 26 27 26 28 33 32 29 27 21 15 26 29 35 33 27 27 28 23 6
14 15 16 17 19 20 21 22 24 26 26 25 26 28 30 29 29 28 28 28 28 28 26 30 30 27 24 24 24 24 30 32 33 29 28 25 25 28

GFSNE_925_spd_045.txt.gz
Wind_Speed
35 27 23 19 15 14 9 9 6 4 4 7 6 8 10 10 11 17 19 20 20 18 20 22 24 24 24 25 26 27 28 28 28 29 30 30 30 30
29 26 23 19 14 14 11 11 11 5 2 2 3 3 7 13 17 17 18 20 19 21 22 23 24 24 25 26 26 27 28 29 29 30 31 31 31 32
26 26 22 18 16 11 11 8 6 6 4 5 8 12 17 18 18 19 21 21 20 22 24 25 25 24 24 26 26 28 28 29 30 31 31 32 31 32
27 25 21 18 15 10 7 7 6 5 7 4 7 12 16 17 18 20 20 21 19 23 26 27 26 24 24 24 25 26 27 28 29 30 30 30 31 31
22 18 15 13 12 10 7 5 4 5 8 8 8 10 16 17 17 16 17 17 19 23 25 25 23 22 22 22 24 26 28 29 30 31 32 33 33 33
18 15 12 10 8 6 3 3 5 5 7 11 11 12 9 12 17 15 18 18 23 22 25 22 20 21 24 26 27 28 29 29 29 30 31 32 34 34
15 12 8 7 5 3 2 2 6 9 8 11 11 9 11 12 15 18 21 21 21 23 20 19 20 22 24 24 26 27 26 26 27 28 29 30 31 32
13 9 6 4 4 5 6 7 10 9 9 7 10 12 13 14 16 18 20 21 14 16 17 27 22 27 26 24 26 26 29 30 30 30 31 32 32 32
9 6 6 5 3 2 3 3 7 8 9 11 12 13 15 16 20 19 18 19 21 26 27 28 25 28 25 25 26 29 31 31 30 29 28 29 29 30
9 7 4 2 1 4 6 6 8 10 11 11 12 15 16 16 16 18 20 23 22 24 20 20 23 24 24 25 28 30 29 27 27 27 27 28 29 30
7 5 2 5 6 6 6 8 9 10 13 15 12 13 14 17 18 16 17 16 16 21 19 19 18 22 26 31 22 20 23 24 27 31 32 31 31 32
4 3 4 5 5 6 7 4 7 12 13 12 14 17 16 16 14 11 11 14 15 13 4 8 20 18 10 15 13 22 26 25 28 29 30 30 30 30
4 5 6 5 7 6 7 9 11 12 10 15 15 13 14 13 12 11 11 13 16 18 22 15 17 22 15 21 20 21 27 31 28 29 29 27 26 25
3 5 5 4 6 8 9 9 9 9 12 10 10 12 13 15 16 18 18 18 18 26 31 24 17 19 22 23 23 26 27 31 29 30 26 26 26 26
4 2 5 8 8 8 6 7 6 7 7 8 10 12 13 17 19 19 22 24 25 26 23 19 23 27 24 25 26 33 28 27 30 29 26 25 27 24
6 6 8 7 7 6 5 4 5 6 7 9 11 13 14 15 17 17 20 22 23 24 21 19 17 21 27 28 27 31 30 16 27 29 27 31 29 27
5 7 7 7 6 5 5 6 7 8 8 10 11 12 13 14 17 19 21 19 16 21 27 30 22 22 26 30 28 28 28 30 29 31 26 31 33 29
5 5 6 6 6 7 8 10 11 12 12 14 13 12 14 15 18 21 18 18 20 23 23 26 25 23 22 21 26 32 27 28 32 30 28 27 31 29
4 5 5 6 8 10 11 12 12 15 17 17 16 16 16 17 18 20 21 20 21 23 25 25 22 19 11 12 24 20 27 28 30 30 28 26 29 35
7 7 8 9 10 11 13 14 16 17 18 18 19 19 18 16 18 19 20 20 22 25 25 25 23 20 14 16 18 36 25 27 25 29 31 29 31 34
9 9 10 11 12 13 15 17 18 19 19 21 22 22 21 19 21 22 22 25 27 24 22 25 27 28 32 31 16 26 28 25 25 28 31 28 28 28
10 11 12 13 14 16 18 19 21 22 23 23 23 23 23 22 23 24 24 25 26 26 28 31 31 26 24 23 19 28 32 32 29 26 27 30 26 8
13 14 15 16 17 18 20 21 22 24 25 25 25 26 25 24 26 25 27 28 28 28 28 27 26 26 25 23 26 27 31 32 31 29 28 22 27 33

GFSNE_925_spd_048.txt.gz
Wind_Speed
30 26 26 33 30 24 22 21 10 5 5 5 3 11 14 13 10 9 10 15 18 19 17 19 22 23 24 24 24 25 26 27 28 29 29 30 31 32
21 20 23 24 21 17 16 16 13 6 3 5 5 7 9 11 12 17 18 20 20 19 20 20 23 24 25 25 26 27 27 27 28 30 30 31 32 33
23 23 21 18 15 16 14 11 8 8 5 4 9 10 14 17 16 15 15 15 18 18 21 22 24 25 25 25 27 27 27 27 28 29 30 31 32 33
19 20 20 19 17 13 9 7 6 5 5 6 8 9 11 11 13 16 15 16 18 20 22 24 25 24 24 24 24 24 25 26 27 28 29 30 30 31
20 22 21 17 14 12 10 8 8 6 6 4 4 6 7 8 11 14 15 17 17 19 22 24 24 23 22 23 23 25 27 28 28 29 30 31 33 34
20 18 17 15 13 12 11 8 7 6 5 6 6 8 8 8 10 13 15 15 19 19 20 22 21 21 23 24 25 26 26 26 26 27 29 30 31 33
19 16 13 11 11 9 8 7 5 5 7 7 8 8 9 10 11 12 15 17 19 19 20 18 18 21 22 22 24 25 25 25 26 26 27 29 30 32
19 15 12 10 8 6 4 4 4 5 6 8 9 10 11 11 11 12 15 17 14 14 13 23 23 25 24 24 25 27 28 28 28 29 30 31 32 33
14 11 7 6 5 4 2 3 6 8 8 10 13 11 11 12 12 13 14 16 20 22 22 25 24 25 24 25 26 28 29 30 30 29 29 29 29 30
12 8 6 5 2 0 3 5 7 7 7 8 10 11 12 12 12 13 15 19 21 22 18 21 22 23 25 25 28 30 30 28 27 27 27 27 28 30
8 6 3 1 3 3 6 7 8 8 8 10 11 11 12 13 14 14 14 15 17 20 18 19 14 20 27 31 27 22 22 24 26 27 29 30 30 30
4 2 2 2 3 4 7 7 8 9 10 10 9 10 11 11 11 11 12 13 14 12 3 7 17 17 8 15 14 20 25 23 25 28 31 30 29 29
2 3 3 4 5 4 5 7 10 12 11 10 10 9 9 9 9 9 10 12 14 17 19 17 16 21 16 19 21 22 27 29 25 28 27 27 26 24
3 3 4 4 6 7 7 7 8 8 8 9 9 9 9 10 9 10 13 15 18 26 29 23 16 18 20 23 20 23 24 31 29 28 24 24 24 25
4 3 5 7 7 6 5 6 5 5 6 8 10 11 11 12 14 14 14 16 19 23 24 21 22 25 23 25 26 30 29 27 31 27 22 22 24 23
4 5 6 7 7 6 5 4 4 6 7 9 12 13 13 13 14 13 15 16 19 21 16 22 22 21 25 27 27 30 29 19 26 29 27 29 27 26
5 6 6 5 4 4 4 5 6 6 7 9 11 13 14 14 15 14 15 17 17 22 24 21 19 21 26 30 30 30 30 29 28 29 28 30 29 28
5 5 5 5 5 5 6 6 7 7 8 10 12 13 14 15 16 15 16 16 19 21 23 23 24 24 26 26 27 34 28 29 30 30 29 28 31 25
5 5 6 5 6 6 7 7 9 9 10 10 12 13 14 15 16 16 16 17 20 21 23 25 23 21 12 13 22 21 28 30 31 29 28 26 29 32
6 6 7 6 7 7 8 9 10 11 12 13 13 14 15 16 17 17 18 19 21 23 25 25 23 23 18 16 18 32 29 34 29 30 30 30 31 34
7 8 8 8 8 8 9 10 12 13 14 16 15 15 16 16 18 19 20 23 26 25 24 25 27 28 32 32 18 23 28 25 29 31 32 28 28 29
9 9 10 10 10 10 11 12 13 14 15 16 17 17 18 17 19 20 21 23 24 26 29 32 31 29 25 23 20 30 31 29 26 30 30 33 28 8
10 11 12 12 12 13 13 13 14 17 18 19 20 20 20 21 21 22 23 25 27 29 30 31 28 24 26 26 28 28 31 33 30 29 25 24 29 35

GFSNE_925_spd_051.txt.gz
Wind_Speed
27 27 23 19 22 25 23 21 15 5 5 5 2 13 18 17 15 14 15 16 16 16 18 17 18 21 20 21 21 22 24 25 25 25 26 26 26 26
24 24 20 19 19 19 21 16 10 5 3 4 8 10 14 16 18 17 18 20 23 22 19 18 19 20 23 23 24 24 24 26 26 26 26 27 27 27
20 22 23 20 16 17 14 8 3 5 3 3 10 13 15 16 17 18 21 22 22 17 19 20 22 21 24 25 25 24 24 25 25 25 25 26 27 28
17 17 15 14 15 12 10 9 10 8 7 8 13 11 15 14 14 14 16 13 17 17 19 21 22 23 24 24 24 23 23 24 24 25 25 26 26 27
11 12 13 15 16 14 12 10 9 6 5 6 4 7 8 7 7 10 13 15 16 17 18 20 20 22 23 22 22 23 24 25 26 26 27 27 27 28
10 12 15 15 15 12 10 8 8 8 4 4 3 2 6 7 8 11 13 12 13 16 18 21 20 20 20 20 23 24 24 24 24 24 25 26 27 28
16 16 12 10 10 10 10 10 7 6 4 4 4 5 7 8 10 9 12 13 15 20 18 18 16 19 22 23 23 23 22 22 23 25 26 27 28 29
17 16 15 14 12 10 8 7 5 5 7 4 4 6 8 9 8 9 8 11 9 7 9 21 20 21 24 24 24 24 24 25 26 26 27 28 29 29
14 13 11 9 6 5 4 3 2 5 5 4 8 9 9 7 7 13 14 13 16 20 19 25 21 22 24 23 23 25 26 26 26 26 26 26 26 27
11 9 8 5 4 3 2 1 3 4 5 6 7 9 9 10 10 12 13 17 19 19 15 20 20 23 26 25 26 27 25 24 23 23 23 24 25 26
8 7 5 3 2 2 2 4 4 5 5 7 9 12 12 12 12 13 15 12 13 15 17 17 13 17 25 31 20 18 18 20 23 26 26 25 26 28
5 4 4 3 3 3 5 5 6 5 7 9 9 9 11 11 11 13 13 12 11 10 1 5 10 13 8 16 13 23 29 25 24 26 28 27 26 27
3 2 3 5 4 4 5 6 7 8 10 9 9 9 9 9 10 11 12 13 13 17 17 15 13 18 13 17 21 24 28 29 28 27 28 28 26 23
5 4 4 4 6 7 7 6 7 7 8 8 8 9 9 10 11 12 13 16 19 24 27 22 16 19 20 24 22 25 27 29 32 30 26 26 25 24
4 5 7 8 8 6 5 6 6 5 6 7 9 10 10 12 14 14 15 16 19 22 24 24 25 27 25 25 26 30 30 27 33 29 23 24 25 25
8 7 8 9 7 6 6 5 4 6 7 9 11 12 13 13 13 13 15 15 18 21 19 18 23 25 28 28 27 32 30 21 28 32 30 30 29 29
9 8 8 6 6 6 5 5 6 7 8 9 11 12 13 14 15 15 16 17 18 20 22 19 19 21 26 30 30 32 31 31 30 31 29 31 29 29
8 8 8 7 7 6 6 7 7 8 9 10 12 13 15 15 16 17 17 19 20 20 22 23 22 23 24 25 28 33 29 29 29 28 27 28 31 27
8 9 8 8 8 8 8 9 10 10 12 14 14 15 16 17 17 18 18 19 21 22 23 23 23 20 10 12 25 22 30 27 31 30 29 27 30 32
9 10 10 9 9 9 10 11 12 12 13 13 14 16 18 18 18 19 19 20 21 23 24 24 22 23 19 15 22 33 28 32 28 28 30 30 32 34
9 10 10 10 11 12 12 13 14 15 15 17 18 18 19 20 20 21 22 24 25 23 23 24 26 27 31 34 21 26 28 27 30 34 33 30 30 30
10 11 12 12 13 14 14 14 15 16 17 17 18 19 20 22 22 23 23 23 24 24 27 30 31 29 28 26 23 29 32 31 29 31 32 34 31 10
13 14 14 15 15 16 17 18 19 19 19 20 20 21 22 23 23 24 25 24 25 27 27 30 31 30 29 28 28 30 30 33 30 27 27 28 31 38